Location: B�y�kalan
(36.7000°N, 30.3000°E)
Time: 18:23:29
(UTC+00:00)

Daily predictions for brighter satellites

Satellite Brightness Start Highest point End
(mag) Time Altitude Azimuth Time Altitude Azimuth Time Altitude Azimuth
NOSS 2-1 (C) 3.2 17:23:02 10° S 17:26:26 42° ESE 17:29:31 10° NE
ISS -3.2 17:23:28 10° WNW 17:26:46 55° SW 17:30:04 10° SE
Cosmos 1271 Rocket 4.5 17:24:44 10° NNE 17:27:25 17° ENE 17:30:07 10° ESE
Cosmos 1633 2.5 17:24:28 10° S 17:28:03 87° ESE 17:31:41 10° N
Meteor 2-3 Rocket 4.3 17:23:56 10° SSE 17:29:04 37° E 17:34:17 10° NNE
Cosmos 2082 Rocket 4.4 17:24:47 10° WSW 17:29:44 31° WNW 17:34:44 10° N
Okean-O 3.4 17:26:28 10° S 17:30:48 55° W 17:35:10 10° NNW
GEOS 3 Rocket 3.6 17:27:56 10° NE 17:33:03 61° ESE 17:38:04 10° SSW
Cosmos 332 Rocket 4.2 17:29:07 10° N 17:33:51 46° ENE 17:38:33 10° SE
NOSS 2-1 (D) 2.9 17:30:43 10° SSW 17:34:13 54° ESE 17:37:24 10° NE
ERS-2 3.6 17:33:10 10° NE 17:35:46 19° E 17:38:21 10° SE
Ariane Rocket 4.0 17:31:36 10° SE 17:35:52 28° ENE 17:40:09 10° N
Cosmos 2098 Rocket 2.5 17:33:14 10° S 17:36:30 80° E 17:40:31 10° N
Cosmos 2360 Rocket 4.0 17:33:27 10° NNE 17:36:53 16° NE 17:40:18 10° E
MetOp-A 4.3 17:35:55 10° S 17:41:15 80° WSW 17:46:38 10° NNW
Helios 1A Rocket 3.1 17:38:31 10° SSE 17:42:27 52° ENE 17:46:26 10° N
Cosmos 2278 4.1 17:38:51 10° NNW 17:44:28 66° WSW 17:50:04 10° S
SAR-Lupe-1 4.1 17:41:06 10° NNE 17:44:37 55° E 17:48:07 10° S
Cosmos 1606 3.0 17:41:41 10° NNW 17:45:28 70° W 17:49:16 10° S
SAR-Lupe-4 3.7 17:43:23 10° NNE 17:46:53 50° E 17:50:20 10° S
Cosmos 304 Rocket 3.9 17:43:10 10° N 17:47:55 60° ENE 17:52:35 10° SSE
BREEZE M DEB (TANK) 2.4 17:46:20 10° SSW 17:48:26 47° SE 17:55:26 10° ENE
Cosmos 2151 2.9 17:44:21 10° S 17:48:34 71° E 17:52:50 10° NNE
Cosmos 2084 4.3 17:47:14 10° SW 17:51:10 51° NW 17:55:12 10° NNE
Resurs 01 Rocket 2.9 17:50:06 13° ESE 17:53:07 24° ENE 17:56:42 10° NNE
Gbstr 26 Del rocket 3.0 17:49:58 10° NW 17:53:38 56° NE 17:56:40 16° ESE
ASTRO E2 4.2 17:53:07 10° SSW 17:55:54 18° SSE 17:57:19 15° SE
Meteor 2-8 Rocket 4.4 17:50:10 10° N 17:56:19 82° E 18:02:24 10° S
Cosmos 1980 Rocket 3.6 17:53:36 10° NW 17:58:46 38° WSW 18:03:56 10° S
MOS 1 4.4 17:56:26 10° SSE 18:01:58 60° ENE 18:07:31 10° N
Cosmos 2221 4.5 18:02:02 10° NNW 18:05:50 30° W 18:09:39 10° SSW
Cosmos 1933 3.3 18:03:59 10° N 18:07:59 62° E 18:11:12 15° SSE
Cosmos 2195 Rocket 4.4 18:02:19 10° S 18:08:22 70° E 18:14:26 10° NNE
Cosmos 1782 3.5 18:06:26 10° NNE 18:10:07 35° E 18:12:02 22° SE
IRS-1A Rocket 4.2 18:05:42 11° SSE 18:10:59 69° ENE 18:16:27 10° N
Cosmos 2333 Rocket 4.1 18:08:35 10° NNE 18:11:46 15° NE 18:14:32 11° E
SL-27 R/B 2.6 18:08:41 10° S 18:12:09 50° ESE 18:15:39 10° NNE
Cosmos 2322 Rocket 2.4 18:09:02 10° NNW 18:14:33 54° ENE 18:18:13 21° SE
OBJECT-B 3.1 18:21:51 10° SSW 18:24:28 23° W 18:27:07 10° NW
Cosmos 2219 Rocket 4.0 18:22:57 10° NNE 18:26:17 16° NE 18:28:28 13° E
Resurs 1-3 3.7 18:23:14 14° S 18:27:00 74° WSW 18:31:24 10° NNW
Atlas Centaur 2 3.4 18:24:20 10° WSW 18:27:52 18° SSW 18:29:40 15° S
SJ-6B 4.4 18:25:06 10° SSW 18:28:26 31° W 18:31:48 10° NNW
ATLAS 5 CENTAUR R/B 4.3 18:28:50 10° N 18:32:12 16° NE 18:35:37 11° ENE
Cosmos 2056 Rocket 3.9 18:27:50 10° N 18:32:58 47° ENE 18:35:08 30° ESE
Cosmos 1092 Rocket 4.3 18:27:37 10° SSW 18:33:51 69° W 18:40:10 10° N
SPOT 1/Viking Rocket 4.0 18:33:49 29° ESE 18:35:58 43° ENE 18:40:53 10° N
Cosmos 2026 Rocket 4.1 18:31:17 10° S 18:37:36 80° W 18:43:52 10° N
USA 276 3.7 18:36:29 10° WNW 18:39:07 24° SW 18:39:43 23° SSW
USA 245 4.4 18:39:41 31° E 18:40:15 32° ENE 18:43:40 10° NNE
Cosmos 1408 Rocket 4.0 18:39:57 38° ESE 18:40:36 40° E 18:44:39 10° NNE
SL-16 R/B 2.7 18:42:28 10° NNW 18:48:01 57° WSW 18:51:40 21° S
IGS 5A 3.5 18:46:46 32° S 18:48:38 73° W 18:52:47 10° NNW
CZ-2C R/B 3.5 18:46:23 10° NNE 18:50:49 65° E 18:52:13 41° SSE
CARTOSAT-1 4.3 18:52:01 34° ENE 18:52:15 34° ENE 18:56:09 10° N
Lacrosse 5 2.8 18:54:47 29° E 18:54:47 29° E 18:57:43 10° NE
GP-B 3.0 18:50:09 10° N 18:54:36 86° E 18:56:12 40° S
Cosmos 1371 Rocket 4.0 18:49:52 10° NNW 18:55:16 88° ENE 18:57:21 39° SSE
Okean 3 Rocket 4.1 18:53:03 14° SSW 18:56:47 61° W 19:01:16 10° N
MetOp-B 4.0 18:55:13 37° SSE 18:57:24 80° ENE 19:02:46 10° N
Cosmos 1151 Rocket 3.1 18:53:23 10° N 18:57:46 77° W 18:59:15 41° S
Meteor 1-10 Rocket 4.4 18:57:48 10° N 19:03:12 51° ENE 19:04:17 45° ESE
Cosmos 2237 4.3 19:00:25 10° NNW 19:06:08 73° WSW 19:08:19 38° S
COSMOS 2455 2.9 19:00:55 10° SSW 19:06:55 82° WNW 19:12:59 10° NNE
COSMOS 2487 3.8 19:12:29 30° NNE 19:12:29 30° NNE 19:14:19 10° NNE
COSMOS 2428 3.8 19:06:06 10° N 19:11:01 29° ENE 19:11:51 28° ENE
Cosmos 1515 Rocket 3.6 19:10:26 10° N 19:14:36 63° ENE 19:14:36 63° ENE
Terra 3.0 19:15:37 29° ENE 19:15:37 29° ENE 19:19:22 10° N
Cosmos 972 Rocket 3.9 19:18:18 64° SE 19:18:50 69° ESE 19:23:48 10° NNE
Cosmos 1048 Rocket 3.9 19:19:38 61° E 19:19:38 61° E 19:24:30 10° NNE
Cosmos 292 Rocket 3.6 19:16:23 10° NNW 19:21:11 85° ENE 19:21:28 79° SE
SPOT 3 Rocket 4.2 19:19:12 33° SSW 19:21:15 51° W 19:26:21 10° NNW
Cosmos 2360 Rocket 2.3 19:15:49 10° NNW 19:21:25 70° WSW 19:22:50 50° S
Cosmos 1328 Rocket 4.2 19:19:34 10° NNW 19:23:52 50° W 19:24:39 44° SW
Cosmos 2266 Rocket 3.8 19:25:10 54° SSE 19:26:37 75° E 19:32:52 10° N
Resurs 01 Rocket 3.4 19:27:40 20° SW 19:29:28 26° W 19:33:14 10° NW
Meteor 2-6 Rocket 4.4 19:27:42 10° NNW 19:33:00 61° W 19:34:17 47° SSW
Cosmos 1553 Rocket 4.3 19:29:44 10° NNW 19:35:42 58° W 19:37:59 37° SSW
Cosmos 1420 Rocket 4.2 19:33:05 10° NNW 19:38:20 63° WSW 19:38:52 59° SW
ERS-1 Rocket 2.9 19:40:14 76° NE 19:40:14 76° NE 19:45:02 10° N
Cosmos 1812 4.5 19:40:48 10° NNW 19:44:02 27° W 19:44:02 27° W
Cosmos 2297 Rocket 3.9 19:49:40 21° ENE 19:49:40 21° ENE 19:51:47 10° NE
Cosmos 2285 Rocket 4.0 19:41:39 10° NNW 19:47:54 63° ENE 19:48:12 62° E
Cosmos 2228 Rocket 4.2 19:46:27 10° N 19:49:24 39° NNE 19:49:24 39° NNE
SPOT 5 3.3 19:52:44 53° NNW 19:52:44 53° NNW 19:56:14 10° NNW
Cosmos 2315 Rocket 4.0 19:46:21 10° N 19:52:40 66° E 19:52:46 65° E
ARIANE 5 R/B 3.3 19:54:19 51° WNW 19:54:19 51° WNW 19:57:58 10° NNW
Cosmos 883 Rocket 4.3 19:48:05 10° N 19:54:23 81° E 19:54:41 79° ESE
Cosmos 2333 Rocket 2.2 19:50:59 10° NNW 19:56:32 76° W 19:56:32 76° W
Meteor 1-20 Rocket 4.5 19:58:16 59° NE 19:58:16 59° NE 20:03:02 10° NNE
BREEZE-M DEB (TANK) 3.9 19:53:19 10° WNW 19:57:39 54° SW 19:58:28 51° SSW
Cosmos 2322 Rocket 4.2 19:54:27 10° WNW 19:58:03 18° W 20:00:03 15° SW
Cosmos 2237 Rocket 3.6 19:54:20 10° N 19:58:46 26° NE 19:58:46 26° NE
Cosmos 2322 3.7 19:53:59 10° NNW 19:59:33 76° W 19:59:33 76° W
Cosmos 2227 Rocket 4.1 20:03:03 18° NE 20:03:03 18° NE 20:04:41 10° NE
BREEZE-M R/B 3.9 19:58:00 10° W 20:02:13 37° NNW 20:02:47 34° N
Cosmos 1452 Rocket 3.8 19:59:35 10° NNW 20:04:09 64° NW 20:04:09 64° NW
Cosmos 2219 Rocket 2.4 20:05:12 10° NNW 20:10:11 65° WNW 20:10:11 65° WNW
ATLAS 5 CENTAUR R/B 2.5 20:11:38 10° NNW 20:17:08 75° NNE 20:17:08 75° NNE
Meteor 1-27 Rocket 4.2 20:13:32 10° NNW 20:18:59 54° W 20:18:59 54° W
SL-16 R/B 4.2 20:27:41 10° NNE 20:31:05 17° NE 20:31:05 17° NE
Lacrosse 5 3.5 20:33:37 22° W 20:36:01 32° NW 20:40:34 10° NNE
Terra 3.9 20:54:30 21° WNW 20:54:30 21° WNW 20:56:53 10° NW
COSMOS 2428 4.1 20:50:10 10° NW 20:53:52 31° WNW 20:53:52 31° WNW
USA 229 DEB 4.4 20:50:59 10° NW 20:57:36 50° W 20:57:36 50° W
USA 229 4.4 20:51:04 10° NW 20:57:42 50° W 20:57:42 50° W
USA 267 3.9 20:56:36 10° NE 21:00:52 44° NE 21:00:52 44° NE
Cosmos 2219 4.2 21:06:25 43° N 21:06:25 43° N 21:10:19 10° NNE
Cosmos 2297 Rocket 3.7 21:31:27 30° NW 21:31:27 30° NW 21:35:47 10° N
Cosmos 2237 Rocket 3.9 21:37:54 10° NW 21:40:34 26° NW 21:40:34 26° NW
Cosmos 2227 Rocket 3.7 21:44:50 30° NW 21:44:50 30° NW 21:48:48 10° N
Cosmos 2263 Rocket 4.1 21:51:47 23° NE 21:51:47 23° NE 21:54:02 10° NE
SL-16 R/B 3.8 22:10:16 10° NNW 22:12:56 29° NW 22:12:56 29° NW
ATLAS CENTAUR R/B 4.5 22:44:53 11° N 22:44:53 11° N 22:45:11 10° N
CZ-4C R/B 3.2 22:34:45 10° NNW 22:41:10 68° NW 22:41:10 68° NW
Resurs 1-4 Rocket 4.1 22:38:50 10° NE 22:41:15 21° ENE 22:41:15 21° ENE
Cosmos 1943 4.5 22:38:49 10° N 22:42:41 38° NNE 22:42:41 38° NNE
Cosmos 1844 Rocket 4.3 22:58:59 27° ENE 22:58:59 27° ENE 23:02:09 10° NE
ADEOS II 4.3 22:56:28 10° NE 22:58:47 16° E 22:58:47 16° E
SL-16 R/B 3.3 23:15:35 44° ENE 23:15:56 45° ENE 23:21:46 10° N
USA 234 3.6 23:18:04 58° NW 23:18:04 58° NW 23:23:09 10° NW
ADEOS Rocket 3.9 23:20:28 36° ENE 23:20:36 36° ENE 23:25:37 10° N
Cosmos 2263 Rocket 3.9 23:33:28 23° NW 23:33:28 23° NW 23:37:17 10° N
Cosmos 2344 4.1 23:34:41 42° WNW 23:35:41 44° NW 23:42:58 10° NNE
Cosmos 2218 Rocket 4.3 23:36:30 59° E 23:36:30 59° E 23:42:27 10° NNE
Cosmos 2341 Rocket 4.2 23:52:49 61° NW 23:52:49 61° NW 23:58:15 10° N
